QPF
0.00 0.00 0.00 0.00 0.00 0.00 0.00 0.00 0.01 0.01 0.01 0.02 0.03 0.03 0.03 0.04 0.04 0.05 0.05 0.04 0.03 0.02 0.03 0.04 0.06 0.09 0.12 0.14 0.17 0.22 0.23 0.22 0.23 0.24 0.21 0.15 0.10 0.09 0.08 0.07 0.05 0.03 0.04
0.00 0.00 0.00 0.00 0.00 0.00 0.00 0.00 0.01 0.01 0.02 0.04 0.04 0.03 0.05 0.05 0.05 0.05 0.04 0.04 0.04 0.03 0.03 0.04 0.06 0.08 0.10 0.12 0.15 0.18 0.18 0.21 0.23 0.22 0.26 0.23 0.17 0.09 0.07 0.08 0.04 0.02 0.03
0.00 0.00 0.00 0.00 0.00 0.00 0.00 0.01 0.02 0.02 0.02 0.03 0.04 0.04 0.05 0.04 0.04 0.05 0.04 0.04 0.04 0.05 0.05 0.04 0.05 0.06 0.08 0.10 0.13 0.17 0.18 0.18 0.19 0.21 0.24 0.20 0.17 0.15 0.10 0.10 0.09 0.05 0.04
0.00 0.00 0.00 0.00 0.00 0.00 0.00 0.01 0.02 0.02 0.01 0.02 0.04 0.04 0.04 0.04 0.04 0.04 0.04 0.05 0.05 0.04 0.03 0.03 0.04 0.05 0.06 0.07 0.08 0.12 0.14 0.16 0.17 0.18 0.19 0.16 0.16 0.18 0.16 0.12 0.09 0.08 0.05
0.00 0.00 0.00 0.00 0.00 0.00 0.00 0.01 0.02 0.01 0.01 0.01 0.01 0.02 0.03 0.04 0.04 0.05 0.05 0.05 0.05 0.03 0.02 0.03 0.04 0.05 0.06 0.07 0.08 0.10 0.11 0.12 0.14 0.16 0.17 0.15 0.13 0.10 0.13 0.16 0.14 0.13 0.07
0.00 0.00 0.00 0.00 0.00 0.00 0.00 0.01 0.01 0.01 0.01 0.01 0.01 0.02 0.02 0.03 0.04 0.05 0.06 0.06 0.06 0.05 0.04 0.03 0.04 0.04 0.05 0.07 0.08 0.09 0.09 0.12 0.15 0.18 0.18 0.16 0.12 0.08 0.08 0.10 0.14 0.17 0.14
0.00 0.00 0.00 0.00 0.00 0.00 0.00 0.00 0.01 0.01 0.01 0.01 0.01 0.01 0.02 0.03 0.05 0.05 0.05 0.06 0.05 0.06 0.05 0.03 0.04 0.04 0.05 0.05 0.06 0.08 0.08 0.10 0.14 0.16 0.15 0.15 0.14 0.14 0.13 0.12 0.13 0.15 0.15
0.00 0.00 0.00 0.00 0.00 0.00 0.00 0.00 0.01 0.00 0.01 0.01 0.00 0.01 0.01 0.02 0.03 0.05 0.07 0.08 0.07 0.06 0.04 0.04 0.03 0.04 0.05 0.05 0.07 0.08 0.08 0.09 0.11 0.12 0.13 0.13 0.12 0.14 0.12 0.11 0.13 0.14 0.13
0.00 0.00 0.00 0.00 0.00 0.00 0.00 0.00 0.00 0.00 0.01 0.01 0.01 0.01 0.01 0.01 0.02 0.03 0.04 0.04 0.04 0.06 0.06 0.06 0.05 0.04 0.05 0.06 0.08 0.09 0.09 0.09 0.10 0.10 0.10 0.11 0.11 0.15 0.15 0.13 0.13 0.15 0.14
0.00 0.00 0.00 0.00 0.00 0.00 0.00 0.00 0.00 0.00 0.00 0.00 0.01 0.01 0.01 0.00 0.01 0.01 0.01 0.02 0.03 0.03 0.04 0.04 0.04 0.04 0.04 0.06 0.09 0.10 0.10 0.09 0.09 0.08 0.09 0.11 0.12 0.13 0.13 0.13 0.13 0.13 0.14
0.00 0.00 0.00 0.00 0.00 0.00 0.00 0.00 0.00 0.00 0.00 0.00 0.00 0.00 0.01 0.01 0.01 0.01 0.01 0.02 0.02 0.02 0.02 0.04 0.05 0.05 0.04 0.06 0.10 0.11 0.11 0.11 0.10 0.08 0.07 0.08 0.10 0.12 0.11 0.11 0.12 0.11 0.11
0.00 0.00 0.00 0.00 0.00 0.00 0.00 0.00 0.00 0.00 0.00 0.00 0.00 0.01 0.01 0.01 0.02 0.01 0.01 0.02 0.02 0.02 0.01 0.03 0.04 0.04 0.04 0.06 0.09 0.10 0.10 0.10 0.08 0.08 0.09 0.09 0.11 0.12 0.12 0.12 0.11 0.10 0.10
0.00 0.00 0.00 0.00 0.00 0.00 0.00 0.00 0.00 0.00 0.00 0.00 0.00 0.00 0.00 0.01 0.01 0.01 0.00 0.01 0.02 0.02 0.02 0.03 0.03 0.04 0.05 0.06 0.09 0.08 0.08 0.08 0.08 0.10 0.10 0.10 0.12 0.13 0.13 0.14 0.13 0.12 0.10
0.00 0.00 0.00 0.00 0.00 0.00 0.00 0.00 0.00 0.00 0.00 0.00 0.00 0.00 0.00 0.00 0.00 0.00 0.01 0.01 0.02 0.03 0.03 0.03 0.05 0.05 0.07 0.07 0.06 0.06 0.07 0.05 0.06 0.09 0.08 0.07 0.09 0.10 0.13 0.14 0.14 0.13 0.12
0.00 0.00 0.00 0.00 0.00 0.00 0.00 0.00 0.00 0.00 0.00 0.00 0.00 0.00 0.00 0.00 0.00 0.00 0.00 0.00 0.01 0.01 0.02 0.03 0.03 0.04 0.04 0.03 0.02 0.04 0.05 0.05 0.07 0.09 0.09 0.05 0.06 0.08 0.10 0.11 0.14 0.15 0.14
0.00 0.00 0.00 0.00 0.00 0.00 0.00 0.00 0.00 0.00 0.00 0.00 0.00 0.00 0.00 0.00 0.00 0.00 0.00 0.00 0.00 0.01 0.01 0.01 0.01 0.02 0.02 0.01 0.01 0.02 0.05 0.06 0.08 0.08 0.08 0.05 0.03 0.04 0.06 0.07 0.10 0.12 0.11
0.00 0.00 0.00 0.00 0.00 0.00 0.00 0.00 0.00 0.00 0.00 0.00 0.00 0.00 0.00 0.00 0.00 0.00 0.00 0.00 0.00 0.00 0.00 0.01 0.00 0.01 0.01 0.01 0.00 0.01 0.04 0.05 0.07 0.09 0.08 0.05 0.03 0.03 0.04 0.06 0.08 0.09 0.09
0.00 0.00 0.00 0.00 0.00 0.00 0.00 0.00 0.00 0.00 0.00 0.00 0.00 0.00 0.00 0.00 0.00 0.00 0.00 0.00 0.00 0.00 0.00 0.00 0.00 0.01 0.01 0.00 0.00 0.00 0.02 0.04 0.04 0.05 0.05 0.06 0.04 0.03 0.05 0.07 0.09 0.09 0.09
0.00 0.00 0.00 0.00 0.00 0.00 0.00 0.00 0.00 0.00 0.00 0.00 0.00 0.00 0.00 0.00 0.00 0.00 0.00 0.00 0.00 0.00 0.00 0.00 0.00 0.00 0.01 0.00 0.00 0.00 0.02 0.03 0.03 0.02 0.02 0.02 0.03 0.02 0.04 0.06 0.08 0.08 0.09
0.00 0.00 0.00 0.00 0.00 0.00 0.00 0.00 0.00 0.00 0.00 0.00 0.00 0.00 0.00 0.00 0.00 0.00 0.00 0.00 0.00 0.00 0.00 0.00 0.00 0.00 0.00 0.00 0.00 0.00 0.02 0.04 0.04 0.04 0.04 0.02 0.01 0.02 0.02 0.05 0.07 0.09 0.09
0.00 0.00 0.00 0.00 0.00 0.00 0.00 0.00 0.00 0.00 0.00 0.00 0.00 0.00 0.00 0.00 0.00 0.00 0.00 0.00 0.00 0.00 0.00 0.00 0.00 0.00 0.00 0.00 0.00 0.00 0.01 0.03 0.04 0.04 0.04 0.02 0.00 0.01 0.01 0.02 0.04 0.08 0.12
0.00 0.00 0.00 0.00 0.00 0.00 0.00 0.00 0.00 0.00 0.00 0.00 0.00 0.00 0.00 0.00 0.00 0.00 0.00 0.00 0.00 0.00 0.00 0.00 0.00 0.00 0.00 0.00 0.00 0.00 0.00 0.01 0.02 0.02 0.02 0.01 0.00 0.00 0.01 0.01 0.02 0.04 0.07
0.00 0.00 0.00 0.00 0.00 0.00 0.00 0.00 0.00 0.00 0.00 0.00 0.00 0.00 0.00 0.00 0.00 0.00 0.00 0.00 0.00 0.00 0.00 0.00 0.00 0.00 0.00 0.00 0.00 0.00 0.00 0.00 0.01 0.01 0.00 0.00 0.00 0.00 0.01 0.01 0.01 0.02 0.04
0.00 0.00 0.00 0.00 0.00 0.00 0.00 0.00 0.00 0.00 0.00 0.00 0.00 0.00 0.00 0.00 0.00 0.00 0.00 0.00 0.00 0.00 0.00 0.00 0.00 0.00 0.00 0.00 0.00 0.00 0.00 0.00 0.01 0.01 0.00 0.00 0.00 0.01 0.01 0.01 0.01 0.01 0.03
0.00 0.00 0.00 0.00 0.00 0.00 0.00 0.00 0.00 0.00 0.00 0.00 0.00 0.00 0.00 0.00 0.00 0.00 0.00 0.00 0.00 0.00 0.00 0.00 0.00 0.00 0.00 0.00 0.00 0.00 0.00 0.00 0.00 0.00 0.01 0.02 0.02 0.01 0.01 0.02 0.02 0.02 0.02
0.00 0.00 0.00 0.00 0.00 0.00 0.00 0.00 0.00 0.00 0.00 0.00 0.00 0.00 0.00 0.00 0.00 0.00 0.00 0.00 0.00 0.00 0.00 0.00 0.00 0.00 0.00 0.00 0.00 0.00 0.00 0.00 0.00 0.00 0.01 0.02 0.02 0.02 0.02 0.02 0.02 0.02 0.02
MSLP
1013.62 1013.75 1013.89 1014.01 1014.12 1014.20 1014.27 1014.31 1014.33 1014.33 1014.29 1014.20 1014.07 1013.89 1013.66 1013.39 1013.10 1012.79 1012.49 1012.20 1011.93 1011.69 1011.48 1011.31 1011.19 1011.13 1011.14 1011.22 1011.38 1011.61 1011.91 1012.23 1012.55 1012.83 1013.03 1013.14 1013.14 1013.03 1012.83 1012.58 1012.32 1012.10 1011.96
1013.64 1013.82 1013.98 1014.11 1014.19 1014.23 1014.25 1014.26 1014.27 1014.28 1014.27 1014.25 1014.18 1014.06 1013.87 1013.63 1013.34 1013.03 1012.70 1012.39 1012.10 1011.85 1011.64 1011.47 1011.34 1011.26 1011.23 1011.25 1011.33 1011.47 1011.67 1011.92 1012.19 1012.46 1012.69 1012.85 1012.92 1012.88 1012.75 1012.53 1012.27 1012.02 1011.81
1013.74 1013.97 1014.14 1014.25 1014.29 1014.28 1014.25 1014.22 1014.21 1014.22 1014.25 1014.27 1014.27 1014.20 1014.07 1013.85 1013.58 1013.25 1012.91 1012.58 1012.28 1012.03 1011.82 1011.66 1011.54 1011.45 1011.38 1011.34 1011.34 1011.38 1011.47 1011.62 1011.82 1012.05 1012.29 1012.48 1012.62 1012.67 1012.62 1012.47 1012.25 1011.99 1011.75
1013.87 1014.12 1014.30 1014.39 1014.39 1014.33 1014.25 1014.18 1014.15 1014.16 1014.22 1014.29 1014.33 1014.32 1014.23 1014.04 1013.77 1013.44 1013.09 1012.75 1012.44 1012.19 1011.99 1011.85 1011.73 1011.64 1011.54 1011.45 1011.36 1011.30 1011.29 1011.33 1011.44 1011.61 1011.82 1012.04 1012.24 1012.37 1012.42 1012.36 1012.21 1011.98 1011.73
1013.95 1014.22 1014.40 1014.47 1014.44 1014.35 1014.23 1014.12 1014.08 1014.10 1014.18 1014.28 1014.37 1014.40 1014.34 1014.17 1013.91 1013.58 1013.21 1012.86 1012.54 1012.29 1012.11 1011.98 1011.87 1011.78 1011.66 1011.52 1011.37 1011.21 1011.08 1011.01 1011.02 1011.12 1011.29 1011.52 1011.76 1011.97 1012.11 1012.15 1012.09 1011.93 1011.71
1013.93 1014.21 1014.39 1014.46 1014.42 1014.31 1014.17 1014.05 1013.99 1014.02 1014.11 1014.24 1014.35 1014.42 1014.38 1014.23 1013.98 1013.64 1013.27 1012.90 1012.58 1012.33 1012.15 1012.03 1011.94 1011.84 1011.71 1011.53 1011.31 1011.07 1010.85 1010.67 1010.58 1010.59 1010.71 1010.92 1011.18 1011.45 1011.67 1011.82 1011.85 1011.78 1011.61
1013.79 1014.08 1014.27 1014.35 1014.32 1014.21 1014.07 1013.95 1013.89 1013.92 1014.02 1014.16 1014.29 1014.37 1014.35 1014.22 1013.97 1013.64 1013.26 1012.89 1012.57 1012.32 1012.14 1012.02 1011.92 1011.82 1011.67 1011.47 1011.20 1010.89 1010.57 1010.30 1010.11 1010.03 1010.08 1010.25 1010.51 1010.81 1011.11 1011.34 1011.48 1011.50 1011.42
1013.53 1013.82 1014.04 1014.14 1014.14 1014.05 1013.93 1013.82 1013.78 1013.80 1013.90 1014.04 1014.18 1014.26 1014.26 1014.13 1013.90 1013.58 1013.21 1012.85 1012.53 1012.27 1012.09 1011.96 1011.86 1011.75 1011.58 1011.34 1011.03 1010.67 1010.28 1009.92 1009.64 1009.48 1009.46 1009.57 1009.80 1010.11 1010.44 1010.74 1010.97 1011.09 1011.10
1013.18 1013.48 1013.72 1013.86 1013.90 1013.86 1013.77 1013.68 1013.65 1013.67 1013.77 1013.90 1014.03 1014.11 1014.11 1014.00 1013.79 1013.49 1013.15 1012.80 1012.49 1012.24 1012.05 1011.91 1011.79 1011.66 1011.47 1011.21 1010.86 1010.46 1010.01 1009.59 1009.24 1009.00 1008.90 1008.94 1009.12 1009.41 1009.74 1010.08 1010.38 1010.58 1010.68
1012.80 1013.11 1013.37 1013.55 1013.63 1013.63 1013.58 1013.53 1013.50 1013.53 1013.61 1013.73 1013.85 1013.93 1013.94 1013.86 1013.68 1013.42 1013.11 1012.79 1012.50 1012.25 1012.05 1011.90 1011.76 1011.60 1011.38 1011.10 1010.73 1010.29 1009.82 1009.36 1008.95 1008.64 1008.46 1008.43 1008.54 1008.78 1009.09 1009.43 1009.76 1010.03 1010.21
1012.43 1012.74 1013.02 1013.23 1013.35 1013.39 1013.38 1013.35 1013.34 1013.36 1013.44 1013.54 1013.66 1013.74 1013.77 1013.71 1013.58 1013.37 1013.11 1012.83 1012.56 1012.32 1012.12 1011.94 1011.77 1011.58 1011.35 1011.04 1010.66 1010.22 1009.74 1009.25 1008.81 1008.46 1008.21 1008.11 1008.14 1008.30 1008.56 1008.87 1009.20 1009.49 1009.72
1012.11 1012.41 1012.68 1012.90 1013.05 1013.12 1013.14 1013.13 1013.14 1013.17 1013.24 1013.34 1013.45 1013.55 1013.60 1013.59 1013.50 1013.35 1013.14 1012.91 1012.67 1012.44 1012.23 1012.03 1011.83 1011.62 1011.36 1011.04 1010.66 1010.23 1009.76 1009.29 1008.84 1008.45 1008.16 1007.99 1007.94 1008.02 1008.19 1008.45 1008.73 1009.02 1009.28
1011.86 1012.12 1012.37 1012.58 1012.72 1012.81 1012.85 1012.86 1012.88 1012.93 1013.01 1013.12 1013.24 1013.36 1013.44 1013.47 1013.44 1013.34 1013.19 1013.01 1012.79 1012.57 1012.35 1012.13 1011.90 1011.66 1011.39 1011.07 1010.71 1010.30 1009.87 1009.42 1008.99 1008.60 1008.28 1008.06 1007.93 1007.91 1008.00 1008.17 1008.39 1008.64 1008.89
1011.65 1011.85 1012.06 1012.23 1012.35 1012.44 1012.49 1012.53 1012.57 1012.65 1012.75 1012.88 1013.03 1013.17 1013.29 1013.36 1013.38 1013.33 1013.23 1013.07 1012.88 1012.66 1012.43 1012.19 1011.94 1011.68 1011.39 1011.09 1010.75 1010.39 1010.01 1009.61 1009.21 1008.84 1008.51 1008.25 1008.06 1007.95 1007.94 1008.02 1008.16 1008.34 1008.55
1011.46 1011.60 1011.73 1011.85 1011.94 1012.01 1012.07 1012.13 1012.21 1012.32 1012.46 1012.62 1012.80 1012.97 1013.13 1013.24 1013.29 1013.28 1013.21 1013.08 1012.90 1012.68 1012.44 1012.18 1011.91 1011.63 1011.35 1011.06 1010.76 1010.45 1010.12 1009.78 1009.43 1009.10 1008.77 1008.49 1008.25 1008.07 1007.97 1007.95 1008.00 1008.10 1008.25
1011.27 1011.32 1011.38 1011.43 1011.48 1011.53 1011.60 1011.69 1011.81 1011.96 1012.14 1012.35 1012.56 1012.77 1012.95 1013.08 1013.16 1013.18 1013.12 1013.00 1012.82 1012.60 1012.35 1012.08 1011.80 1011.52 1011.24 1010.98 1010.71 1010.45 1010.18 1009.90 1009.61 1009.30 1009.00 1008.70 1008.43 1008.19 1008.02 1007.91 1007.87 1007.89 1007.97
1011.05 1011.03 1011.01 1011.00 1011.01 1011.05 1011.13 1011.24 1011.40 1011.60 1011.83 1012.08 1012.32 1012.55 1012.75 1012.90 1012.98 1013.00 1012.95 1012.83 1012.66 1012.43 1012.18 1011.90 1011.62 1011.34 1011.09 1010.84 1010.61 1010.39 1010.18 1009.94 1009.70 1009.43 1009.14 1008.85 1008.55 1008.28 1008.05 1007.87 1007.75 1007.70 1007.70
1010.82 1010.73 1010.65 1010.59 1010.57 1010.61 1010.69 1010.84 1011.03 1011.27 1011.54 1011.81 1012.08 1012.32 1012.52 1012.67 1012.75 1012.76 1012.71 1012.59 1012.41 1012.19 1011.94 1011.68 1011.41 1011.15 1010.91 1010.70 1010.50 1010.31 1010.13 1009.94 1009.72 1009.48 1009.20 1008.91 1008.61 1008.31 1008.04 1007.81 1007.63 1007.51 1007.45
1010.59 1010.46 1010.34 1010.26 1010.23 1010.26 1010.35 1010.51 1010.74 1011.00 1011.28 1011.57 1011.84 1012.07 1012.26 1012.39 1012.45 1012.45 1012.39 1012.27 1012.11 1011.90 1011.68 1011.44 1011.20 1010.97 1010.76 1010.57 1010.40 1010.24 1010.08 1009.90 1009.70 1009.47 1009.21 1008.92 1008.61 1008.29 1008.00 1007.74 1007.52 1007.36 1007.24
1010.42 1010.28 1010.15 1010.06 1010.02 1010.04 1010.14 1010.31 1010.53 1010.79 1011.07 1011.34 1011.59 1011.80 1011.95 1012.05 1012.10 1012.08 1012.01 1011.90 1011.75 1011.58 1011.38 1011.19 1010.99 1010.81 1010.64 1010.48 1010.34 1010.19 1010.04 1009.88 1009.68 1009.45 1009.19 1008.90 1008.58 1008.27 1007.96 1007.69 1007.45 1007.26 1007.10
1010.35 1010.23 1010.11 1010.02 1009.98 1009.99 1010.08 1010.23 1010.43 1010.66 1010.90 1011.13 1011.33 1011.49 1011.60 1011.66 1011.66 1011.63 1011.56 1011.46 1011.33 1011.19 1011.05 1010.91 1010.77 1010.64 1010.52 1010.40 1010.28 1010.16 1010.02 1009.86 1009.66 1009.43 1009.17 1008.87 1008.56 1008.25 1007.95 1007.67 1007.43 1007.22 1007.05
1010.43 1010.34 1010.24 1010.16 1010.11 1010.11 1010.17 1010.28 1010.42 1010.59 1010.77 1010.92 1011.05 1011.14 1011.19 1011.20 1011.17 1011.11 1011.02 1010.93 1010.83 1010.73 1010.63 1010.55 1010.47 1010.40 1010.34 1010.27 1010.19 1010.10 1009.98 1009.82 1009.63 1009.40 1009.14 1008.85 1008.54 1008.24 1007.95 1007.69 1007.45 1007.25 1007.07
1010.66 1010.61 1010.54 1010.46 1010.41 1010.38 1010.39 1010.44 1010.51 1010.59 1010.67 1010.74 1010.78 1010.78 1010.76 1010.70 1010.62 1010.52 1010.42 1010.32 1010.23 1010.16 1010.10 1010.07 1010.05 1010.04 1010.03 1010.01 1009.98 1009.93 1009.84 1009.71 1009.53 1009.32 1009.07 1008.79 1008.50 1008.22 1007.95 1007.70 1007.49 1007.30 1007.13
1011.02 1011.02 1010.97 1010.90 1010.83 1010.77 1010.72 1010.69 1010.67 1010.66 1010.63 1010.59 1010.53 1010.44 1010.33 1010.19 1010.05 1009.90 1009.76 1009.64 1009.54 1009.48 1009.44 1009.44 1009.46 1009.49 1009.54 1009.58 1009.60 1009.59 1009.55 1009.45 1009.31 1009.13 1008.90 1008.65 1008.39 1008.13 1007.89 1007.67 1007.48 1007.32 1007.18
1011.48 1011.51 1011.49 1011.42 1011.34 1011.24 1011.13 1011.02 1010.91 1010.80 1010.67 1010.52 1010.36 1010.17 1009.97 1009.75 1009.53 1009.32 1009.12 1008.96 1008.82 1008.73 1008.69 1008.69 1008.72 1008.79 1008.87 1008.95 1009.02 1009.07 1009.07 1009.03 1008.94 1008.79 1008.61 1008.39 1008.16 1007.93 1007.71 1007.52 1007.37 1007.24 1007.14
1011.96 1012.03 1012.03 1011.98 1011.88 1011.75 1011.60 1011.42 1011.23 1011.03 1010.81 1010.57 1010.31 1010.04 1009.75 1009.45 1009.15 1008.86 1008.60 1008.36 1008.17 1008.02 1007.94 1007.91 1007.93 1007.99 1008.08 1008.19 1008.30 1008.39 1008.45 1008.45 1008.41 1008.31 1008.16 1007.98 1007.77 1007.57 1007.38 1007.22 1007.10 1007.01 1006.96
Thickness
5723 5718 5713 5708 5703 5698 5693 5689 5685 5683 5681 5678 5677 5677 5678 5680 5683 5686 5687 5689 5691 5694 5697 5700 5703 5706 5708 5710 5713 5715 5716 5718 5722 5720 5722 5729 5735 5740 5744 5748 5752 5757 5759
5720 5715 5711 5706 5701 5695 5690 5687 5683 5681 5678 5676 5675 5675 5676 5677 5680 5681 5682 5684 5685 5687 5691 5693 5695 5698 5701 5703 5707 5709 5709 5712 5716 5714 5712 5713 5720 5730 5739 5742 5746 5751 5755
5717 5712 5708 5703 5699 5694 5690 5686 5682 5680 5677 5676 5674 5673 5674 5674 5674 5675 5677 5679 5680 5682 5684 5686 5689 5692 5695 5697 5700 5703 5704 5705 5709 5713 5710 5707 5708 5718 5728 5735 5739 5744 5749
5718 5712 5707 5702 5698 5694 5691 5687 5683 5680 5677 5675 5672 5669 5668 5667 5669 5671 5673 5675 5677 5678 5679 5681 5683 5686 5689 5691 5694 5698 5700 5700 5701 5705 5710 5712 5713 5709 5713 5724 5732 5737 5742
5719 5713 5709 5704 5700 5696 5691 5687 5684 5680 5677 5675 5672 5670 5668 5667 5668 5669 5670 5671 5673 5674 5675 5677 5678 5680 5682 5685 5688 5691 5694 5696 5697 5699 5702 5704 5707 5709 5707 5709 5718 5726 5735
5721 5716 5712 5706 5701 5697 5693 5689 5685 5681 5678 5676 5674 5671 5668 5666 5666 5666 5666 5667 5668 5670 5671 5672 5673 5675 5677 5679 5682 5684 5687 5690 5693 5695 5697 5698 5699 5701 5704 5705 5709 5715 5724
5721 5716 5711 5706 5701 5698 5694 5691 5686 5682 5680 5677 5675 5672 5670 5667 5665 5664 5664 5664 5664 5665 5666 5668 5669 5670 5672 5674 5676 5678 5681 5684 5686 5689 5692 5694 5697 5700 5701 5702 5704 5708 5715
5722 5717 5713 5708 5704 5701 5697 5693 5688 5684 5682 5679 5676 5673 5670 5667 5665 5663 5662 5661 5661 5662 5663 5664 5665 5666 5667 5669 5670 5672 5675 5678 5681 5684 5687 5689 5692 5695 5697 5698 5698 5699 5704
5725 5720 5716 5712 5708 5704 5700 5696 5691 5687 5684 5680 5677 5674 5670 5667 5664 5663 5661 5659 5659 5660 5660 5661 5662 5662 5663 5664 5665 5666 5669 5671 5674 5676 5679 5682 5686 5690 5692 5695 5697 5695 5695
5728 5724 5719 5714 5711 5707 5704 5700 5695 5690 5686 5682 5678 5675 5671 5667 5665 5663 5660 5658 5657 5657 5657 5657 5657 5658 5658 5659 5660 5661 5663 5665 5667 5670 5672 5675 5680 5683 5686 5689 5693 5695 5694
5730 5726 5721 5718 5714 5711 5707 5702 5698 5693 5688 5683 5679 5675 5672 5669 5666 5663 5660 5657 5656 5655 5654 5654 5654 5653 5653 5653 5654 5655 5657 5658 5660 5663 5666 5668 5673 5676 5680 5684 5687 5690 5692
5733 5729 5724 5720 5716 5712 5708 5704 5700 5695 5690 5685 5681 5677 5674 5670 5667 5663 5660 5657 5654 5653 5652 5651 5651 5649 5649 5649 5649 5650 5651 5652 5654 5656 5659 5662 5667 5670 5674 5678 5682 5685 5689
5735 5731 5726 5721 5717 5714 5710 5706 5702 5697 5693 5688 5683 5679 5675 5671 5667 5664 5660 5657 5655 5652 5650 5649 5647 5646 5645 5644 5645 5646 5647 5649 5651 5652 5654 5657 5660 5664 5668 5673 5676 5680 5684
5736 5732 5726 5723 5720 5717 5713 5709 5704 5700 5696 5690 5685 5680 5676 5673 5669 5665 5661 5658 5655 5652 5650 5648 5646 5644 5643 5641 5641 5642 5644 5646 5647 5649 5651 5653 5655 5658 5663 5667 5671 5675 5677
5738 5735 5729 5726 5723 5719 5716 5712 5707 5703 5698 5692 5686 5682 5678 5674 5670 5667 5663 5660 5657 5654 5651 5648 5645 5643 5642 5639 5638 5639 5641 5642 5644 5645 5647 5649 5651 5655 5658 5662 5664 5668 5670
5741 5738 5735 5730 5726 5723 5719 5714 5709 5705 5700 5694 5689 5684 5680 5675 5671 5668 5665 5661 5658 5656 5653 5649 5646 5643 5641 5639 5638 5637 5638 5639 5640 5641 5643 5645 5647 5650 5653 5657 5660 5662 5664
5743 5740 5737 5733 5729 5727 5722 5716 5711 5707 5702 5696 5691 5687 5682 5677 5673 5670 5666 5662 5660 5657 5654 5651 5648 5645 5642 5640 5639 5638 5638 5638 5639 5639 5640 5643 5644 5645 5647 5651 5655 5657 5661
5745 5742 5739 5736 5733 5730 5725 5719 5714 5708 5703 5697 5693 5689 5684 5679 5675 5671 5667 5664 5662 5658 5656 5653 5651 5647 5645 5642 5640 5639 5639 5639 5639 5639 5639 5639 5639 5640 5642 5645 5649 5652 5655
5747 5744 5742 5739 5735 5731 5727 5721 5716 5710 5704 5698 5694 5691 5686 5681 5676 5672 5669 5667 5664 5660 5658 5656 5654 5650 5647 5644 5642 5640 5639 5639 5639 5638 5638 5638 5637 5638 5640 5642 5644 5646 5649
5747 5744 5741 5738 5734 5731 5726 5719 5714 5710 5704 5700 5696 5693 5689 5683 5678 5675 5672 5669 5666 5664 5662 5659 5657 5654 5650 5647 5644 5641 5640 5639 5638 5638 5637 5636 5636 5636 5638 5639 5640 5641 5644
5745 5742 5738 5734 5731 5729 5724 5716 5713 5709 5706 5702 5698 5693 5690 5685 5682 5678 5674 5672 5669 5666 5664 5662 5661 5658 5655 5651 5647 5644 5640 5638 5638 5638 5636 5635 5635 5635 5636 5637 5637 5638 5640
5741 5738 5733 5730 5728 5726 5720 5714 5710 5709 5706 5701 5696 5692 5690 5687 5685 5680 5676 5674 5670 5667 5665 5664 5663 5661 5658 5654 5650 5647 5643 5640 5638 5637 5637 5635 5635 5635 5635 5636 5636 5637 5638
5738 5734 5730 5726 5725 5723 5718 5711 5709 5708 5704 5699 5695 5692 5690 5688 5686 5681 5678 5675 5672 5669 5666 5665 5662 5661 5660 5657 5653 5649 5647 5644 5640 5639 5637 5636 5636 5635 5635 5635 5635 5635 5636
5734 5731 5727 5722 5720 5720 5716 5712 5709 5706 5702 5698 5695 5693 5691 5689 5687 5684 5680 5676 5672 5669 5667 5665 5662 5661 5660 5657 5654 5650 5648 5645 5642 5640 5639 5638 5637 5635 5634 5635 5635 5635 5635
5729 5726 5721 5717 5715 5714 5712 5709 5706 5703 5699 5696 5695 5693 5691 5689 5686 5684 5681 5678 5676 5673 5668 5666 5663 5660 5657 5655 5653 5649 5647 5643 5640 5638 5638 5639 5638 5637 5636 5636 5636 5635 5635
5722 5718 5714 5711 5709 5707 5704 5702 5700 5697 5693 5690 5690 5688 5687 5686 5684 5682 5680 5681 5677 5675 5672 5669 5665 5663 5660 5657 5653 5650 5646 5643 5640 5637 5637 5638 5638 5638 5638 5637 5636 5636 5635